{"data":{"norad_id":58525,"intl_designator":"2023-191T","name":"STARLINK-30948","alt_names":[],"object_type":"PAYLOAD","status":"ACTIVE","operator":null,"country":"US","launch_date":"2023-12-07","launch_site_code":"AFETR","launch_vehicle":null,"mission":null,"orbit_class":"UNKNOWN","rcs_meters":null,"size_class":null,"mass_kg":null,"dimensions":null,"purposes":["comms"],"wikipedia_slug":null,"has_3d_model":false,"image_url":null,"decayed_at":null,"tle_current":{"epoch":"2026-09-19T05:39:00.503136Z","epoch_age_seconds":256079,"freshness":"STALE","line1":"1 58525U 23191T   26262.23542249 -.00002500  00000+0 -81424-4 0  9991","line2":"2 58525  43.0030  90.2179 0000322   2.5932 357.4922 15.27559193155070","mean_motion":15.27559193,"eccentricity":3.22e-5,"inclination_deg":43.003,"raan_deg":90.2179,"arg_perigee_deg":2.5932,"mean_anomaly_deg":357.4922,"bstar":-8.1424e-5,"rev_number":15507,"period_min":94.268032728209,"perigee_km":482.89046819164,"apogee_km":483.33233258862,"semimajor_km":6861.2484003901,"source":"CELESTRAK","updated_at":"2026-09-21T09:00:33.910179Z"}}}